Очамчиров

Georgia     42˚43′58″N   41˚28′01″E
temp.,
°C
wind,
m/s
gust,
m/s
humid.,
%
clouds,
%
prec.,
mm/h
press.,
hPa
HPBL,
m
27 november, fri
fri2701:00+6˚ene227176 0.0 102757
04:00+6˚ene236770 0.2 102876
07:00+5˚ene236729 0.0 102865
10:00+7˚ese256115 0.0 1028218
13:00+11˚sse34640 0.0 1027622
16:00+11˚se24640 0.0 1026624
19:00+8˚ene23740 0.0 102868
22:00+7˚nne22540 0.0 102739
28 november, sat
sat2801:00+7˚ene12490 0.0 102642
04:00+6˚e11470 0.0 102542
07:00+5˚ene11460 0.0 102538
10:00+8˚se01460 0.0 102444
13:00+12˚w01370 0.0 1022177
16:00+13˚n11410 0.0 1022139
19:00+10˚ne22510 0.0 102335
22:00+8˚ene11530 0.0 102445
29 november, sun
sun2901:00+8˚ne12494 0.0 102435
04:00+7˚ene114734 0.0 102532
07:00+6˚ene114639 0.0 102440
10:00+9˚ene014519 0.0 102436
13:00+13˚ssw11360 0.0 1022168
16:00+13˚nw11380 0.0 1021115
19:00+10˚nne12500 0.0 102333
22:00+9˚ne12470 0.0 102330
30 november, mon
mon3001:00+8˚ene22440 0.0 102237
04:00+8˚nne22410 0.0 102231
07:00+7˚ene12410 0.0 102130
10:00+10˚ene11410 0.0 102035
13:00+14˚sw11330 0.0 1017178
16:00+14˚nw11390 0.0 1016116
19:00+10˚ne12470 0.0 101733
22:00+9˚ene12490 0.0 101832
1 december, tue
tue101:00+8˚ene12500 0.0 101845
04:00+8˚ene12470 0.0 101844
07:00+7˚ne11460 0.0 101838
10:00+9˚ene11461 0.0 101840
13:00+14˚s11370 0.0 1018240
16:00+14˚ne11439 0.0 1018157
19:00+10˚ene125536 0.0 101950
22:00+9˚ne125743 0.0 102042